Time,TemperatureF,DewpointF,PressureIn,WindDirection,WindDirectionDegrees,WindSpeedMPH,WindSpeedGustMPH,Humidity,HourlyPrecipIn,Conditions,Clouds,dailyrainin,SolarRadiationWatts/m^2,SoftwareType,DateUTC
2013-01-22 00:01:00,-2.4,-10.6,30.26,NW,324,14.0,17.0,67,0.00,,SKC,0.00,0.00,VWS V14.01,2013-01-22 06:01:00,
2013-01-22 00:06:00,-2.5,-10.7,30.26,NNW,342,14.0,19.0,67,0.00,,SKC,0.00,0.00,VWS V14.01,2013-01-22 06:06:00,
2013-01-22 00:11:00,-2.5,-11.0,30.26,NW,318,17.0,17.0,66,0.00,,SKC,0.00,0.00,VWS V14.01,2013-01-22 06:11:00,
2013-01-22 00:16:00,-2.6,-11.1,30.26,NNW,332,8.0,20.0,66,0.00,,SKC,0.00,0.00,VWS V14.01,2013-01-22 06:16:00,
2013-01-22 00:21:00,-2.7,-11.2,30.26,NW,325,12.0,14.0,66,0.00,,SKC,0.00,0.00,VWS V14.01,2013-01-22 06:21:00,
2013-01-22 00:26:00,-2.7,-11.2,30.26,WNW,303,11.0,16.0,66,0.00,,SKC,0.00,0.00,VWS V14.01,2013-01-22 06:26:00,
2013-01-22 00:31:00,-2.8,-11.0,30.26,West,279,15.0,16.0,67,0.00,,SKC,0.00,0.00,VWS V14.01,2013-01-22 06:31:00,
2013-01-22 00:36:00,-2.8,-11.0,30.26,WNW,294,7.0,16.0,67,0.00,,SKC,0.00,0.00,VWS V14.01,2013-01-22 06:36:00,
2013-01-22 00:41:00,-2.9,-10.8,30.26,NW,304,11.0,16.0,68,0.00,,SKC,0.00,0.00,VWS V14.01,2013-01-22 06:41:00,
2013-01-22 00:46:00,-2.9,-11.1,30.26,NW,317,18.0,18.0,67,0.00,,SKC,0.00,0.00,VWS V14.01,2013-01-22 06:46:00,
2013-01-22 00:51:00,-3.0,-11.5,30.26,NNW,329,9.0,17.0,66,0.00,,SKC,0.00,0.00,VWS V14.01,2013-01-22 06:51:00,
2013-01-22 00:56:00,-3.1,-11.6,30.26,NNW,327,10.0,21.0,66,0.00,,SKC,0.00,0.00,VWS V14.01,2013-01-22 06:56:00,
2013-01-22 01:01:00,-3.2,-11.7,30.26,NW,325,13.0,16.0,66,0.00,,SKC,0.00,0.00,VWS V14.01,2013-01-22 07:01:00,
2013-01-22 01:06:00,-3.3,-11.8,30.26,WNW,300,11.0,20.0,66,0.00,,SKC,0.00,0.00,VWS V14.01,2013-01-22 07:06:00,
2013-01-22 01:11:00,-3.4,-11.9,30.27,WNW,300,16.0,18.0,66,0.00,,SKC,0.00,0.00,VWS V14.01,2013-01-22 07:11:00,
2013-01-22 01:16:00,-3.4,-11.6,30.27,NW,313,9.0,18.0,67,0.00,,SKC,0.00,0.00,VWS V14.01,2013-01-22 07:16:00,
2013-01-22 01:21:00,-3.5,-11.7,30.27,WNW,292,10.0,17.0,67,0.00,,SKC,0.00,0.00,VWS V14.01,2013-01-22 07:21:00,
2013-01-22 01:26:00,-3.5,-11.7,30.27,NW,307,11.0,17.0,67,0.00,,SKC,0.00,0.00,VWS V14.01,2013-01-22 07:26:00,
2013-01-22 01:31:00,-3.6,-11.8,30.27,WNW,295,12.0,19.0,67,0.00,,SKC,0.00,0.00,VWS V14.01,2013-01-22 07:31:00,
2013-01-22 01:36:00,-3.6,-11.8,30.27,North,355,8.0,19.0,67,0.00,,SKC,0.00,0.00,VWS V14.01,2013-01-22 07:36:00,
2013-01-22 01:41:00,-3.7,-11.9,30.28,NNW,330,10.0,11.0,67,0.00,,SKC,0.00,0.00,VWS V14.01,2013-01-22 07:41:00,
2013-01-22 01:46:00,-3.8,-11.7,30.28,NW,321,10.0,12.0,68,0.00,,SKC,0.00,0.00,VWS V14.01,2013-01-22 07:46:00,
2013-01-22 01:51:00,-3.8,-11.1,30.28,WNW,294,8.0,9.0,70,0.00,,SKC,0.00,0.00,VWS V14.01,2013-01-22 07:51:00,
2013-01-22 01:56:00,-3.8,-10.8,30.28,NW,305,5.0,12.0,71,0.00,,SKC,0.00,0.00,VWS V14.01,2013-01-22 07:56:00,
2013-01-22 02:01:00,-3.9,-10.4,30.28,NW,308,3.0,10.0,73,0.00,,SKC,0.00,0.00,VWS V14.01,2013-01-22 08:01:00,
2013-01-22 02:06:00,-3.9,-10.4,30.29,NNW,339,6.0,11.0,73,0.00,,SKC,0.00,0.00,VWS V14.01,2013-01-22 08:06:00,
2013-01-22 02:11:00,-4.0,-10.2,30.29,WNW,300,8.0,11.0,74,0.00,,SKC,0.00,0.00,VWS V14.01,2013-01-22 08:11:00,
2013-01-22 02:16:00,-4.1,-10.3,30.29,North,355,4.0,11.0,74,0.00,,SKC,0.00,0.00,VWS V14.01,2013-01-22 08:16:00,
2013-01-22 02:21:00,-4.3,-10.5,30.30,NNW,338,10.0,14.0,74,0.00,,SKC,0.00,0.00,VWS V14.01,2013-01-22 08:21:00,
2013-01-22 02:26:00,-4.4,-10.8,30.30,NW,309,11.0,16.0,73,0.00,,SKC,0.00,0.00,VWS V14.01,2013-01-22 08:26:00,
2013-01-22 02:31:00,-4.5,-11.2,30.30,NW,321,9.0,16.0,72,0.00,,SKC,0.00,0.00,VWS V14.01,2013-01-22 08:31:00,
2013-01-22 02:36:00,-4.6,-11.3,30.30,NNW,333,10.0,16.0,72,0.00,,SKC,0.00,0.00,VWS V14.01,2013-01-22 08:36:00,
2013-01-22 02:41:00,-4.6,-11.6,30.30,NNW,332,9.0,11.0,71,0.00,,SKC,0.00,0.00,VWS V14.01,2013-01-22 08:41:00,
2013-01-22 02:47:00,-4.7,-12.0,30.30,NW,305,8.0,11.0,70,0.00,,SKC,0.00,0.00,VWS V14.01,2013-01-22 08:47:00,
2013-01-22 02:52:00,-4.8,-12.1,30.30,NW,317,13.0,13.0,70,0.00,,SKC,0.00,0.00,VWS V14.01,2013-01-22 08:52:00,
2013-01-22 02:57:00,-4.9,-12.4,30.30,NW,311,9.0,14.0,69,0.00,,SKC,0.00,0.00,VWS V14.01,2013-01-22 08:57:00,
2013-01-22 03:02:00,-4.9,-12.4,30.30,NNW,331,8.0,14.0,69,0.00,,SKC,0.00,0.00,VWS V14.01,2013-01-22 09:02:00,
2013-01-22 03:07:00,-5.0,-12.6,30.30,NNW,331,9.0,14.0,69,0.00,,SKC,0.00,0.00,VWS V14.01,2013-01-22 09:07:00,
2013-01-22 03:12:00,-5.0,-12.6,30.30,NW,323,9.0,12.0,69,0.00,,SKC,0.00,0.00,VWS V14.01,2013-01-22 09:12:00,
2013-01-22 03:17:00,-5.1,-12.4,30.30,NW,313,10.0,14.0,70,0.00,,SKC,0.00,0.00,VWS V14.01,2013-01-22 09:17:00,
2013-01-22 03:22:00,-5.1,-12.4,30.30,NNW,330,8.0,10.0,70,0.00,,SKC,0.00,0.00,VWS V14.01,2013-01-22 09:22:00,
2013-01-22 03:27:00,-5.2,-12.5,30.30,NW,326,11.0,11.0,70,0.00,,SKC,0.00,0.00,VWS V14.01,2013-01-22 09:27:00,
2013-01-22 03:32:00,-5.2,-12.5,30.31,NW,315,6.0,9.0,70,0.00,,SKC,0.00,0.00,VWS V14.01,2013-01-22 09:32:00,
2013-01-22 03:37:00,-5.2,-12.5,30.31,NW,324,5.0,15.0,70,0.00,,SKC,0.00,0.00,VWS V14.01,2013-01-22 09:37:00,
2013-01-22 03:42:00,-5.2,-12.5,30.31,NW,311,10.0,13.0,70,0.00,,SKC,0.00,0.00,VWS V14.01,2013-01-22 09:42:00,
2013-01-22 03:47:00,-5.2,-12.7,30.30,NNW,328,8.0,14.0,69,0.00,,SKC,0.00,0.00,VWS V14.01,2013-01-22 09:47:00,
2013-01-22 03:52:00,-5.3,-12.6,30.30,NNW,346,9.0,11.0,70,0.00,,SKC,0.00,0.00,VWS V14.01,2013-01-22 09:52:00,
2013-01-22 03:57:00,-5.3,-12.6,30.30,NW,326,8.0,12.0,70,0.00,,SKC,0.00,0.00,VWS V14.01,2013-01-22 09:57:00,
2013-01-22 04:02:00,-5.4,-12.6,30.30,NW,324,7.0,14.0,70,0.00,,SKC,0.00,0.00,VWS V14.01,2013-01-22 10:02:00,
2013-01-22 04:07:00,-5.3,-12.6,30.30,NW,313,7.0,14.0,70,0.00,,SKC,0.00,0.00,VWS V14.01,2013-01-22 10:07:00,
2013-01-22 04:12:00,-5.3,-12.6,30.30,NW,317,8.0,12.0,70,0.00,,SKC,0.00,0.00,VWS V14.01,2013-01-22 10:12:00,
2013-01-22 04:17:00,-5.4,-12.6,30.30,WNW,302,10.0,13.0,70,0.00,,SKC,0.00,0.00,VWS V14.01,2013-01-22 10:17:00,
2013-01-22 04:22:00,-5.3,-12.6,30.30,NW,310,11.0,13.0,70,0.00,,SKC,0.00,0.00,VWS V14.01,2013-01-22 10:22:00,
2013-01-22 04:27:00,-5.4,-12.9,30.30,NW,309,6.0,14.0,69,0.00,,SKC,0.00,0.00,VWS V14.01,2013-01-22 10:27:00,
2013-01-22 04:32:00,-5.4,-12.9,30.30,NNW,344,14.0,14.0,69,0.00,,SKC,0.00,0.00,VWS V14.01,2013-01-22 10:32:00,
2013-01-22 04:37:00,-5.4,-12.9,30.30,WNW,297,7.0,15.0,69,0.00,,SKC,0.00,0.00,VWS V14.01,2013-01-22 10:37:00,
2013-01-22 04:42:00,-5.4,-12.9,30.31,NNW,348,8.0,12.0,69,0.00,,SKC,0.00,0.00,VWS V14.01,2013-01-22 10:42:00,
2013-01-22 04:47:00,-5.5,-13.0,30.31,NW,316,5.0,12.0,69,0.00,,SKC,0.00,0.00,VWS V14.01,2013-01-22 10:47:00,
2013-01-22 04:52:00,-5.5,-13.0,30.30,WNW,294,11.0,11.0,69,0.00,,SKC,0.00,0.00,VWS V14.01,2013-01-22 10:52:00,
2013-01-22 04:57:00,-5.5,-13.0,30.31,NW,320,5.0,11.0,69,0.00,,SKC,0.00,0.00,VWS V14.01,2013-01-22 10:57:00,
2013-01-22 05:02:00,-5.5,-13.0,30.31,NW,307,6.0,10.0,69,0.00,,SKC,0.00,0.00,VWS V14.01,2013-01-22 11:02:00,
2013-01-22 05:07:00,-5.6,-13.1,30.31,NW,304,6.0,10.0,69,0.00,,SKC,0.00,0.00,VWS V14.01,2013-01-22 11:07:00,
2013-01-22 05:12:00,-5.6,-13.1,30.31,WNW,298,8.0,12.0,69,0.00,,SKC,0.00,0.00,VWS V14.01,2013-01-22 11:12:00,
2013-01-22 05:17:00,-5.5,-13.0,30.31,NW,314,3.0,12.0,69,0.00,,SKC,0.00,0.00,VWS V14.01,2013-01-22 11:17:00,
2013-01-22 05:22:00,-5.7,-13.2,30.31,NW,306,5.0,6.0,69,0.00,,SKC,0.00,0.00,VWS V14.01,2013-01-22 11:22:00,
2013-01-22 05:27:00,-5.7,-13.2,30.31,NW,309,9.0,9.0,69,0.00,,SKC,0.00,0.00,VWS V14.01,2013-01-22 11:27:00,
2013-01-22 05:32:00,-5.8,-13.3,30.31,NW,316,7.0,9.0,69,0.00,,SKC,0.00,0.00,VWS V14.01,2013-01-22 11:32:00,
2013-01-22 05:37:00,-5.8,-13.3,30.31,NW,323,8.0,10.0,69,0.00,,SKC,0.00,0.00,VWS V14.01,2013-01-22 11:37:00,
2013-01-22 05:42:00,-5.8,-13.0,30.31,WNW,302,8.0,8.0,70,0.00,,SKC,0.00,0.00,VWS V14.01,2013-01-22 11:42:00,
2013-01-22 05:47:00,-5.8,-13.0,30.31,NW,309,10.0,10.0,70,0.00,,SKC,0.00,0.00,VWS V14.01,2013-01-22 11:47:00,
2013-01-22 05:52:00,-5.8,-13.0,30.31,WNW,296,9.0,10.0,70,0.00,,SKC,0.00,0.00,VWS V14.01,2013-01-22 11:52:00,
2013-01-22 05:57:00,-5.8,-13.3,30.31,WNW,302,7.0,11.0,69,0.00,,SKC,0.00,0.00,VWS V14.01,2013-01-22 11:57:00,
2013-01-22 06:02:00,-5.8,-13.3,30.31,NW,313,5.0,8.0,69,0.00,,SKC,0.00,0.00,VWS V14.01,2013-01-22 12:02:00,
2013-01-22 06:07:00,-5.9,-13.1,30.31,NW,308,7.0,12.0,70,0.00,,SKC,0.00,0.00,VWS V14.01,2013-01-22 12:07:00,
2013-01-22 06:12:00,-5.9,-13.1,30.31,NW,313,7.0,9.0,70,0.00,,SKC,0.00,0.00,VWS V14.01,2013-01-22 12:12:00,
2013-01-22 06:17:00,-6.0,-13.2,30.31,NW,317,9.0,13.0,70,0.00,,SKC,0.00,0.00,VWS V14.01,2013-01-22 12:17:00,
2013-01-22 06:22:00,-6.0,-13.2,30.32,NW,317,5.0,9.0,70,0.00,,SKC,0.00,0.00,VWS V14.01,2013-01-22 12:22:00,
2013-01-22 06:27:00,-6.1,-13.3,30.32,NW,317,7.0,9.0,70,0.00,,SKC,0.00,0.00,VWS V14.01,2013-01-22 12:27:00,
2013-01-22 06:32:00,-6.0,-13.2,30.32,NW,322,4.0,11.0,70,0.00,,SKC,0.00,0.00,VWS V14.01,2013-01-22 12:32:00,
2013-01-22 06:37:00,-6.0,-13.2,30.32,NW,311,9.0,11.0,70,0.00,,SKC,0.00,0.00,VWS V14.01,2013-01-22 12:37:00,
2013-01-22 06:42:00,-5.9,-13.1,30.32,NW,313,7.0,7.0,70,0.00,,SKC,0.00,0.00,VWS V14.01,2013-01-22 12:42:00,
2013-01-22 06:47:00,-5.9,-13.1,30.33,NW,304,6.0,9.0,70,0.00,,SKC,0.00,0.00,VWS V14.01,2013-01-22 12:47:00,
2013-01-22 06:52:00,-5.9,-13.1,30.33,WNW,293,2.0,7.0,70,0.00,,SKC,0.00,0.00,VWS V14.01,2013-01-22 12:52:00,
2013-01-22 06:57:00,-6.0,-13.2,30.33,WNW,292,2.0,7.0,70,0.00,,SKC,0.00,0.00,VWS V14.01,2013-01-22 12:57:00,
2013-01-22 07:03:00,-6.1,-13.3,30.33,WNW,292,3.0,4.0,70,0.00,,SKC,0.00,0.00,VWS V14.01,2013-01-22 13:03:00,
2013-01-22 07:08:00,-6.0,-12.9,30.33,WNW,292,3.0,6.0,71,0.00,,SKC,0.00,0.00,VWS V14.01,2013-01-22 13:08:00,
2013-01-22 07:13:00,-6.0,-12.9,30.33,WNW,295,7.0,8.0,71,0.00,,SKC,0.00,0.00,VWS V14.01,2013-01-22 13:13:00,
2013-01-22 07:18:00,-6.0,-12.9,30.33,WNW,295,5.0,8.0,71,0.00,,SKC,0.00,5.00,VWS V14.01,2013-01-22 13:18:00,
2013-01-22 07:23:00,-6.0,-12.9,30.33,WNW,298,3.0,6.0,71,0.00,,SKC,0.00,7.00,VWS V14.01,2013-01-22 13:23:00,
2013-01-22 07:28:00,-6.0,-12.9,30.34,WNW,296,5.0,7.0,71,0.00,,SKC,0.00,11.00,VWS V14.01,2013-01-22 13:28:00,
2013-01-22 07:33:00,-5.9,-12.9,30.34,WNW,296,3.0,9.0,71,0.00,,SKC,0.00,14.00,VWS V14.01,2013-01-22 13:33:00,
2013-01-22 07:38:00,-5.9,-12.9,30.34,WNW,294,6.0,9.0,71,0.00,,SKC,0.00,18.00,VWS V14.01,2013-01-22 13:38:00,
2013-01-22 07:43:00,-5.8,-12.8,30.34,WNW,297,5.0,9.0,71,0.00,,SKC,0.00,21.00,VWS V14.01,2013-01-22 13:43:00,
2013-01-22 07:48:00,-5.7,-12.6,30.34,WNW,298,2.0,9.0,71,0.00,,SKC,0.00,30.00,VWS V14.01,2013-01-22 13:48:00,
2013-01-22 07:53:00,-5.5,-12.5,30.34,WNW,291,5.0,8.0,71,0.00,,SKC,0.00,39.00,VWS V14.01,2013-01-22 13:53:00,
2013-01-22 07:58:00,-5.4,-12.4,30.34,WNW,292,7.0,10.0,71,0.00,,SKC,0.00,49.00,VWS V14.01,2013-01-22 13:58:00,
2013-01-22 08:03:00,-5.4,-12.4,30.35,WNW,285,7.0,12.0,71,0.00,,SKC,0.00,62.00,VWS V14.01,2013-01-22 14:03:00,
2013-01-22 08:08:00,-5.2,-12.2,30.35,NW,304,5.0,12.0,71,0.00,,SKC,0.00,72.00,VWS V14.01,2013-01-22 14:08:00,
2013-01-22 08:13:00,-5.0,-12.0,30.35,West,281,9.0,13.0,71,0.00,,SKC,0.00,84.00,VWS V14.01,2013-01-22 14:13:00,
2013-01-22 08:18:00,-4.9,-11.9,30.35,NW,315,10.0,13.0,71,0.00,,SKC,0.00,100.00,VWS V14.01,2013-01-22 14:18:00,
2013-01-22 08:23:00,-4.8,-11.8,30.35,WNW,286,8.0,12.0,71,0.00,,SKC,0.00,116.00,VWS V14.01,2013-01-22 14:23:00,
2013-01-22 08:28:00,-4.7,-11.7,30.35,NW,316,7.0,13.0,71,0.00,,SKC,0.00,130.00,VWS V14.01,2013-01-22 14:28:00,
2013-01-22 08:33:00,-4.4,-11.4,30.35,West,280,6.0,9.0,71,0.00,,SKC,0.00,148.00,VWS V14.01,2013-01-22 14:33:00,
2013-01-22 08:38:00,-4.2,-11.2,30.35,WNW,290,8.0,10.0,71,0.00,,SKC,0.00,162.00,VWS V14.01,2013-01-22 14:38:00,
2013-01-22 08:43:00,-4.4,-11.4,30.35,WNW,300,8.0,14.0,71,0.00,,SKC,0.00,176.00,VWS V14.01,2013-01-22 14:43:00,
2013-01-22 08:48:00,-4.3,-11.3,30.35,NNW,344,8.0,14.0,71,0.00,,SKC,0.00,193.00,VWS V14.01,2013-01-22 14:48:00,
2013-01-22 08:53:00,-4.0,-11.0,30.35,West,270,13.0,13.0,71,0.00,,SKC,0.00,209.00,VWS V14.01,2013-01-22 14:53:00,
2013-01-22 08:58:00,-4.0,-11.0,30.35,West,269,8.0,13.0,71,0.00,,SKC,0.00,225.00,VWS V14.01,2013-01-22 14:58:00,
2013-01-22 09:03:00,-3.8,-10.8,30.35,WNW,300,9.0,17.0,71,0.00,,SKC,0.00,239.00,VWS V14.01,2013-01-22 15:03:00,
2013-01-22 09:08:00,-3.6,-10.6,30.36,NW,307,6.0,17.0,71,0.00,,SKC,0.00,229.00,VWS V14.01,2013-01-22 15:08:00,
2013-01-22 09:13:00,-3.4,-10.4,30.35,WNW,302,10.0,14.0,71,0.00,,SKC,0.00,251.00,VWS V14.01,2013-01-22 15:13:00,
2013-01-22 09:18:00,-3.2,-10.5,30.36,WNW,298,10.0,14.0,70,0.00,,SKC,0.00,274.00,VWS V14.01,2013-01-22 15:18:00,
2013-01-22 09:23:00,-3.2,-10.5,30.35,NW,320,11.0,13.0,70,0.00,,SKC,0.00,294.00,VWS V14.01,2013-01-22 15:23:00,
2013-01-22 09:28:00,-2.7,-9.8,30.36,WNW,298,7.0,13.0,71,0.00,,SKC,0.00,288.00,VWS V14.01,2013-01-22 15:28:00,
2013-01-22 09:33:00,-2.4,-9.8,30.36,WNW,284,12.0,13.0,70,0.00,,SKC,0.00,299.00,VWS V14.01,2013-01-22 15:33:00,
2013-01-22 09:38:00,-2.4,-10.1,30.36,WNW,293,10.0,14.0,69,0.00,,SKC,0.00,318.00,VWS V14.01,2013-01-22 15:38:00,
2013-01-22 09:43:00,-2.2,-9.9,30.35,West,265,12.0,12.0,69,0.00,,SKC,0.00,332.00,VWS V14.01,2013-01-22 15:43:00,
2013-01-22 09:48:00,-2.2,-9.9,30.36,WNW,284,8.0,12.0,69,0.00,,SKC,0.00,316.00,VWS V14.01,2013-01-22 15:48:00,
2013-01-22 09:53:00,-1.9,-9.3,30.36,West,271,10.0,13.0,70,0.00,,SKC,0.00,366.00,VWS V14.01,2013-01-22 15:53:00,
2013-01-22 09:58:00,-1.8,-9.5,30.36,West,273,7.0,13.0,69,0.00,,SKC,0.00,364.00,VWS V14.01,2013-01-22 15:58:00,
2013-01-22 10:03:00,-1.5,-9.5,30.36,WSW,257,3.0,13.0,68,0.00,,SKC,0.00,380.00,VWS V14.01,2013-01-22 16:03:00,
2013-01-22 10:08:00,-1.3,-9.3,30.36,WSW,257,9.0,13.0,68,0.00,,SKC,0.00,392.00,VWS V14.01,2013-01-22 16:08:00,
2013-01-22 10:13:00,-1.2,-9.2,30.36,SW,226,7.0,14.0,68,0.00,,SKC,0.00,399.00,VWS V14.01,2013-01-22 16:13:00,
2013-01-22 10:18:00,-1.1,-9.4,30.36,West,266,12.0,14.0,67,0.00,,SKC,0.00,410.00,VWS V14.01,2013-01-22 16:18:00,
2013-01-22 10:23:00,-0.8,-8.8,30.36,West,267,7.0,13.0,68,0.00,,SKC,0.00,397.00,VWS V14.01,2013-01-22 16:23:00,
2013-01-22 10:28:00,-0.5,-8.8,30.36,West,267,9.0,14.0,67,0.00,,SKC,0.00,422.00,VWS V14.01,2013-01-22 16:28:00,
2013-01-22 10:33:00,-0.1,-8.4,30.36,WNW,288,9.0,13.0,67,0.00,,SKC,0.00,411.00,VWS V14.01,2013-01-22 16:33:00,
2013-01-22 10:38:00,-0.1,-9.1,30.36,WNW,286,10.0,14.0,65,0.00,,SKC,0.00,446.00,VWS V14.01,2013-01-22 16:38:00,
2013-01-22 10:43:00,-0.1,-9.0,30.36,West,275,6.0,13.0,65,0.00,,SKC,0.00,443.00,VWS V14.01,2013-01-22 16:43:00,
2013-01-22 10:48:00,0.2,-8.8,30.35,West,273,7.0,14.0,65,0.00,,SKC,0.00,457.00,VWS V14.01,2013-01-22 16:48:00,
2013-01-22 10:53:00,0.4,-8.6,30.35,West,262,8.0,16.0,65,0.00,,SKC,0.00,466.00,VWS V14.01,2013-01-22 16:53:00,
2013-01-22 10:58:00,0.9,-8.1,30.35,WSW,246,7.0,16.0,65,0.00,,SKC,0.00,475.00,VWS V14.01,2013-01-22 16:58:00,
2013-01-22 11:04:00,1.1,-8.2,30.35,West,260,13.0,13.0,64,0.00,,SKC,0.00,466.00,VWS V14.01,2013-01-22 17:04:00,
2013-01-22 11:09:00,1.2,-8.1,30.35,WSW,257,5.0,13.0,64,0.00,,SKC,0.00,471.00,VWS V14.01,2013-01-22 17:09:00,
2013-01-22 11:14:00,1.3,-8.4,30.34,WNW,285,12.0,16.0,63,0.00,,SKC,0.00,420.00,VWS V14.01,2013-01-22 17:14:00,
2013-01-22 11:19:00,1.3,-8.4,30.34,NW,304,9.0,16.0,63,0.00,,SKC,0.00,487.00,VWS V14.01,2013-01-22 17:19:00,
2013-01-22 11:24:00,1.4,-8.3,30.34,WNW,300,8.0,14.0,63,0.00,,SKC,0.00,494.00,VWS V14.01,2013-01-22 17:24:00,
2013-01-22 11:29:00,1.9,-7.5,30.34,West,261,11.0,14.0,64,0.00,,SKC,0.00,496.00,VWS V14.01,2013-01-22 17:29:00,
2013-01-22 11:34:00,2.2,-7.2,30.34,WSW,251,12.0,12.0,64,0.00,,SKC,0.00,411.00,VWS V14.01,2013-01-22 17:34:00,
2013-01-22 11:39:00,2.0,-7.7,30.35,WNW,290,12.0,17.0,63,0.00,,SKC,0.00,492.00,VWS V14.01,2013-01-22 17:39:00,
2013-01-22 11:44:00,2.2,-7.5,30.35,West,267,14.0,18.0,63,0.00,,SKC,0.00,504.00,VWS V14.01,2013-01-22 17:44:00,
2013-01-22 11:49:00,2.3,-7.1,30.34,WSW,246,13.0,18.0,64,0.00,,SKC,0.00,522.00,VWS V14.01,2013-01-22 17:49:00,
2013-01-22 11:54:00,2.7,-7.0,30.34,West,271,10.0,18.0,63,0.00,,SKC,0.00,533.00,VWS V14.01,2013-01-22 17:54:00,
2013-01-22 11:59:00,2.8,-6.9,30.34,West,277,12.0,18.0,63,0.00,,SKC,0.00,527.00,VWS V14.01,2013-01-22 17:59:00,
2013-01-22 12:04:00,2.8,-7.2,30.34,SW,234,9.0,14.0,62,0.00,,SKC,0.00,462.00,VWS V14.01,2013-01-22 18:04:00,
2013-01-22 12:09:00,3.4,-6.3,30.34,WSW,258,17.0,20.0,63,0.00,,SKC,0.00,520.00,VWS V14.01,2013-01-22 18:09:00,
2013-01-22 12:14:00,3.3,-6.4,30.34,WSW,242,8.0,13.0,63,0.00,,SKC,0.00,520.00,VWS V14.01,2013-01-22 18:14:00,
2013-01-22 12:19:00,3.4,-6.3,30.34,WNW,290,11.0,18.0,63,0.00,,SKC,0.00,584.00,VWS V14.01,2013-01-22 18:19:00,
2013-01-22 12:24:00,3.9,-5.9,30.33,WNW,299,7.0,14.0,63,0.00,,SKC,0.00,543.00,VWS V14.01,2013-01-22 18:24:00,
2013-01-22 12:29:00,3.6,-6.5,30.33,West,269,9.0,18.0,62,0.00,,SKC,0.00,526.00,VWS V14.01,2013-01-22 18:29:00,
2013-01-22 12:34:00,3.8,-6.0,30.33,WNW,298,7.0,14.0,63,0.00,,SKC,0.00,492.00,VWS V14.01,2013-01-22 18:34:00,
2013-01-22 12:39:00,4.5,-5.3,30.32,West,270,16.0,19.0,63,0.00,,SKC,0.00,550.00,VWS V14.01,2013-01-22 18:39:00,
2013-01-22 12:44:00,4.0,-6.8,30.32,WNW,294,16.0,17.0,60,0.00,,SKC,0.00,531.00,VWS V14.01,2013-01-22 18:44:00,
2013-01-22 12:49:00,3.8,-6.3,30.33,West,272,8.0,18.0,62,0.00,,SKC,0.00,512.00,VWS V14.01,2013-01-22 18:49:00,
2013-01-22 12:54:00,4.1,-6.0,30.32,WSW,242,14.0,17.0,62,0.00,,SKC,0.00,534.00,VWS V14.01,2013-01-22 18:54:00,
2013-01-22 12:59:00,4.4,-6.1,30.32,West,269,7.0,17.0,61,0.00,,SKC,0.00,497.00,VWS V14.01,2013-01-22 18:59:00,
2013-01-22 13:04:00,4.6,-5.9,30.31,WSW,252,15.0,16.0,61,0.00,,SKC,0.00,540.00,VWS V14.01,2013-01-22 19:04:00,
2013-01-22 13:09:00,4.8,-6.0,30.31,WNW,291,11.0,19.0,60,0.00,,SKC,0.00,575.00,VWS V14.01,2013-01-22 19:09:00,
2013-01-22 13:14:00,4.6,-6.2,30.31,West,260,7.0,16.0,60,0.00,,SKC,0.00,520.00,VWS V14.01,2013-01-22 19:14:00,
2013-01-22 13:19:00,4.6,-6.2,30.31,NW,306,10.0,16.0,60,0.00,,SKC,0.00,510.00,VWS V14.01,2013-01-22 19:19:00,
2013-01-22 13:24:00,4.8,-5.7,30.31,West,265,13.0,18.0,61,0.00,,SKC,0.00,512.00,VWS V14.01,2013-01-22 19:24:00,
2013-01-22 13:29:00,5.5,-5.0,30.31,West,269,12.0,18.0,61,0.00,,SKC,0.00,475.00,VWS V14.01,2013-01-22 19:29:00,
2013-01-22 13:34:00,5.9,-5.0,30.31,WSW,255,8.0,13.0,60,0.00,,SKC,0.00,483.00,VWS V14.01,2013-01-22 19:34:00,
2013-01-22 13:39:00,5.8,-5.4,30.31,West,273,7.0,18.0,59,0.00,,SKC,0.00,425.00,VWS V14.01,2013-01-22 19:39:00,
2013-01-22 13:44:00,5.5,-5.7,30.31,SW,222,11.0,17.0,59,0.00,,SKC,0.00,469.00,VWS V14.01,2013-01-22 19:44:00,
2013-01-22 13:49:00,6.0,-4.9,30.31,West,281,17.0,20.0,60,0.00,,SKC,0.00,455.00,VWS V14.01,2013-01-22 19:49:00,
2013-01-22 13:54:00,5.6,-5.6,30.31,WSW,252,10.0,19.0,59,0.00,,SKC,0.00,411.00,VWS V14.01,2013-01-22 19:54:00,
2013-01-22 13:59:00,5.5,-5.7,30.31,WNW,288,10.0,19.0,59,0.00,,SKC,0.00,401.00,VWS V14.01,2013-01-22 19:59:00,
2013-01-22 14:04:00,5.6,-5.6,30.31,West,275,16.0,22.0,59,0.00,,SKC,0.00,434.00,VWS V14.01,2013-01-22 20:04:00,
2013-01-22 14:09:00,5.9,-5.3,30.31,SW,215,12.0,22.0,59,0.00,,SKC,0.00,410.00,VWS V14.01,2013-01-22 20:09:00,
2013-01-22 14:14:00,6.2,-5.4,30.31,WSW,249,12.0,20.0,58,0.00,,SKC,0.00,404.00,VWS V14.01,2013-01-22 20:14:00,
2013-01-22 14:19:00,6.1,-5.5,30.31,WSW,253,16.0,20.0,58,0.00,,SKC,0.00,332.00,VWS V14.01,2013-01-22 20:19:00,
2013-01-22 14:24:00,6.2,-5.4,30.31,West,265,12.0,17.0,58,0.00,,SKC,0.00,325.00,VWS V14.01,2013-01-22 20:24:00,
2013-01-22 14:29:00,6.6,-4.7,30.31,WSW,250,10.0,17.0,59,0.00,,SKC,0.00,396.00,VWS V14.01,2013-01-22 20:29:00,
2013-01-22 14:34:00,6.7,-4.9,30.31,WSW,252,10.0,16.0,58,0.00,,SKC,0.00,364.00,VWS V14.01,2013-01-22 20:34:00,
2013-01-22 14:39:00,6.7,-4.6,30.31,WNW,284,11.0,17.0,59,0.00,,SKC,0.00,327.00,VWS V14.01,2013-01-22 20:39:00,
2013-01-22 14:45:00,6.8,-5.2,30.32,West,261,10.0,18.0,57,0.00,,SKC,0.00,329.00,VWS V14.01,2013-01-22 20:45:00,
2013-01-22 14:50:00,6.9,-4.7,30.32,WSW,255,11.0,19.0,58,0.00,,SKC,0.00,332.00,VWS V14.01,2013-01-22 20:50:00,
2013-01-22 14:55:00,6.6,-5.4,30.32,West,265,7.0,21.0,57,0.00,,SKC,0.00,288.00,VWS V14.01,2013-01-22 20:55:00,
2013-01-22 15:00:00,6.7,-4.9,30.32,WSW,245,15.0,21.0,58,0.00,,SKC,0.00,265.00,VWS V14.01,2013-01-22 21:00:00,
2013-01-22 15:05:00,6.9,-4.7,30.32,West,259,12.0,18.0,58,0.00,,SKC,0.00,274.00,VWS V14.01,2013-01-22 21:05:00,
2013-01-22 15:10:00,6.6,-5.4,30.32,West,269,18.0,22.0,57,0.00,,SKC,0.00,278.00,VWS V14.01,2013-01-22 21:10:00,
2013-01-22 15:15:00,6.8,-5.2,30.32,West,263,15.0,17.0,57,0.00,,SKC,0.00,262.00,VWS V14.01,2013-01-22 21:15:00,
2013-01-22 15:20:00,6.7,-5.3,30.32,West,260,14.0,22.0,57,0.00,,SKC,0.00,223.00,VWS V14.01,2013-01-22 21:20:00,
2013-01-22 15:25:00,6.8,-5.2,30.32,West,275,7.0,15.0,57,0.00,,SKC,0.00,171.00,VWS V14.01,2013-01-22 21:25:00,
2013-01-22 15:30:00,6.5,-5.5,30.32,WSW,248,13.0,20.0,57,0.00,,SKC,0.00,93.00,VWS V14.01,2013-01-22 21:30:00,
2013-01-22 15:32:00,6.5,-5.1,30.32,West,259,13.0,18.0,58,0.00,,SKC,0.00,171.00,VWS V14.01,2013-01-22 21:32:00,
2013-01-22 15:37:00,6.6,-5.0,30.32,West,277,13.0,18.0,58,0.00,,SKC,0.00,149.00,VWS V14.01,2013-01-22 21:37:00,
2013-01-22 15:42:00,6.6,-5.0,30.33,West,268,6.0,17.0,58,0.00,,SKC,0.00,156.00,VWS V14.01,2013-01-22 21:42:00,
2013-01-22 15:47:00,6.9,-4.7,30.32,WNW,302,12.0,17.0,58,0.00,,SKC,0.00,167.00,VWS V14.01,2013-01-22 21:47:00,
2013-01-22 15:52:00,6.8,-4.8,30.32,West,278,10.0,18.0,58,0.00,,SKC,0.00,118.00,VWS V14.01,2013-01-22 21:52:00,
2013-01-22 15:57:00,6.9,-4.7,30.32,West,271,12.0,18.0,58,0.00,,SKC,0.00,104.00,VWS V14.01,2013-01-22 21:57:00,
2013-01-22 16:02:00,6.9,-4.7,30.32,West,275,8.0,15.0,58,0.00,,SKC,0.00,93.00,VWS V14.01,2013-01-22 22:02:00,
2013-01-22 16:07:00,7.0,-4.7,30.32,WNW,290,14.0,17.0,58,0.00,,SKC,0.00,74.00,VWS V14.01,2013-01-22 22:07:00,
2013-01-22 16:12:00,6.6,-5.0,30.32,WNW,300,13.0,18.0,58,0.00,,SKC,0.00,69.00,VWS V14.01,2013-01-22 22:12:00,
2013-01-22 16:17:00,6.6,-4.7,30.32,West,272,9.0,18.0,59,0.00,,SKC,0.00,72.00,VWS V14.01,2013-01-22 22:17:00,
2013-01-22 16:22:00,6.7,-4.9,30.32,West,267,13.0,16.0,58,0.00,,SKC,0.00,33.00,VWS V14.01,2013-01-22 22:22:00,
2013-01-22 16:27:00,6.8,-4.5,30.32,SW,231,8.0,16.0,59,0.00,,SKC,0.00,32.00,VWS V14.01,2013-01-22 22:27:00,
2013-01-22 16:32:00,6.9,-4.7,30.32,WNW,290,13.0,13.0,58,0.00,,SKC,0.00,30.00,VWS V14.01,2013-01-22 22:32:00,
2013-01-22 16:37:00,6.7,-4.9,30.32,West,265,6.0,16.0,58,0.00,,SKC,0.00,14.00,VWS V14.01,2013-01-22 22:37:00,
2013-01-22 16:42:00,6.7,-4.6,30.31,West,281,10.0,15.0,59,0.00,,SKC,0.00,9.00,VWS V14.01,2013-01-22 22:42:00,
2013-01-22 16:47:00,6.7,-4.6,30.31,West,261,10.0,15.0,59,0.00,,SKC,0.00,5.00,VWS V14.01,2013-01-22 22:47:00,
2013-01-22 16:52:00,6.7,-4.6,30.32,WNW,288,9.0,16.0,59,0.00,,SKC,0.00,0.00,VWS V14.01,2013-01-22 22:52:00,
2013-01-22 16:57:00,6.7,-4.2,30.32,NW,306,8.0,16.0,60,0.00,,SKC,0.00,0.00,VWS V14.01,2013-01-22 22:57:00,
2013-01-22 17:02:00,6.6,-4.3,30.32,WNW,300,8.0,14.0,60,0.00,,SKC,0.00,0.00,VWS V14.01,2013-01-22 23:02:00,
2013-01-22 17:07:00,6.6,-4.3,30.32,West,270,6.0,14.0,60,0.00,,SKC,0.00,0.00,VWS V14.01,2013-01-22 23:07:00,
2013-01-22 17:12:00,6.5,-4.4,30.32,WNW,303,6.0,9.0,60,0.00,,SKC,0.00,0.00,VWS V14.01,2013-01-22 23:12:00,
2013-01-22 17:17:00,6.4,-4.5,30.32,WNW,299,7.0,13.0,60,0.00,,SKC,0.00,0.00,VWS V14.01,2013-01-22 23:17:00,
2013-01-22 17:23:00,6.4,-4.5,30.32,West,279,9.0,13.0,60,0.00,,SKC,0.00,0.00,VWS V14.01,2013-01-22 23:23:00,
2013-01-22 17:28:00,6.3,-4.6,30.32,WNW,297,5.0,13.0,60,0.00,,SKC,0.00,0.00,VWS V14.01,2013-01-22 23:28:00,
2013-01-22 17:33:00,6.3,-4.6,30.32,WNW,292,6.0,8.0,60,0.00,,SKC,0.00,0.00,VWS V14.01,2013-01-22 23:33:00,
2013-01-22 17:38:00,6.2,-4.7,30.32,WNW,302,4.0,9.0,60,0.00,,SKC,0.00,0.00,VWS V14.01,2013-01-22 23:38:00,
2013-01-22 17:43:00,6.1,-4.4,30.32,WNW,303,9.0,9.0,61,0.00,,SKC,0.00,0.00,VWS V14.01,2013-01-22 23:43:00,
2013-01-22 17:48:00,6.0,-4.6,30.32,WNW,292,8.0,11.0,61,0.00,,SKC,0.00,0.00,VWS V14.01,2013-01-22 23:48:00,
2013-01-22 17:53:00,5.9,-4.6,30.32,WNW,286,6.0,10.0,61,0.00,,SKC,0.00,0.00,VWS V14.01,2013-01-22 23:53:00,
2013-01-22 17:58:00,5.9,-4.6,30.32,WNW,284,7.0,10.0,61,0.00,,SKC,0.00,0.00,VWS V14.01,2013-01-22 23:58:00,
2013-01-22 18:03:00,5.8,-4.7,30.32,West,276,8.0,10.0,61,0.00,,SKC,0.00,0.00,VWS V14.01,2013-01-23 00:03:00,
2013-01-22 18:08:00,5.7,-4.8,30.32,WNW,288,8.0,10.0,61,0.00,,SKC,0.00,0.00,VWS V14.01,2013-01-23 00:08:00,
2013-01-22 18:13:00,5.6,-4.6,30.32,WNW,294,6.0,7.0,62,0.00,,SKC,0.00,0.00,VWS V14.01,2013-01-23 00:13:00,
2013-01-22 18:18:00,5.6,-4.6,30.32,WNW,292,5.0,7.0,62,0.00,,SKC,0.00,0.00,VWS V14.01,2013-01-23 00:18:00,
2013-01-22 18:23:00,5.4,-4.8,30.32,WNW,297,3.0,7.0,62,0.00,,SKC,0.00,0.00,VWS V14.01,2013-01-23 00:23:00,
2013-01-22 18:28:00,5.4,-4.4,30.32,NW,314,6.0,7.0,63,0.00,,SKC,0.00,0.00,VWS V14.01,2013-01-23 00:28:00,
2013-01-22 18:33:00,5.4,-4.4,30.32,WNW,294,5.0,7.0,63,0.00,,SKC,0.00,0.00,VWS V14.01,2013-01-23 00:33:00,
2013-01-22 18:38:00,5.4,-4.4,30.32,WNW,292,5.0,7.0,63,0.00,,SKC,0.00,0.00,VWS V14.01,2013-01-23 00:38:00,
2013-01-22 18:43:00,5.5,-4.3,30.33,WNW,290,5.0,8.0,63,0.00,,SKC,0.00,0.00,VWS V14.01,2013-01-23 00:43:00,
2013-01-22 18:48:00,5.6,-3.9,30.32,WNW,290,4.0,8.0,64,0.00,,SKC,0.00,0.00,VWS V14.01,2013-01-23 00:48:00,
2013-01-22 18:53:00,5.5,-4.0,30.32,WNW,290,5.0,8.0,64,0.00,,SKC,0.00,0.00,VWS V14.01,2013-01-23 00:53:00,
2013-01-22 18:58:00,5.6,-3.9,30.32,WNW,289,6.0,8.0,64,0.00,,SKC,0.00,0.00,VWS V14.01,2013-01-23 00:58:00,
2013-01-22 19:03:00,5.7,-3.8,30.31,WNW,290,5.0,8.0,64,0.00,,SKC,0.00,0.00,VWS V14.01,2013-01-23 01:03:00,
2013-01-22 19:08:00,5.7,-3.8,30.31,NW,316,7.0,9.0,64,0.00,,SKC,0.00,0.00,VWS V14.01,2013-01-23 01:08:00,
2013-01-22 19:13:00,5.7,-3.5,30.32,WNW,303,6.0,9.0,65,0.00,,SKC,0.00,0.00,VWS V14.01,2013-01-23 01:13:00,
2013-01-22 19:18:00,5.8,-3.4,30.31,NW,309,7.0,11.0,65,0.00,,SKC,0.00,0.00,VWS V14.01,2013-01-23 01:18:00,
2013-01-22 19:23:00,5.8,-3.4,30.31,WNW,294,7.0,12.0,65,0.00,,SKC,0.00,0.00,VWS V14.01,2013-01-23 01:23:00,
2013-01-22 19:28:00,5.7,-3.5,30.32,WNW,301,6.0,12.0,65,0.00,,SKC,0.00,0.00,VWS V14.01,2013-01-23 01:28:00,
2013-01-22 19:33:00,5.8,-3.4,30.32,WNW,300,9.0,10.0,65,0.00,,SKC,0.00,0.00,VWS V14.01,2013-01-23 01:33:00,
2013-01-22 19:38:00,5.8,-3.4,30.31,WNW,300,7.0,10.0,65,0.00,,SKC,0.00,0.00,VWS V14.01,2013-01-23 01:38:00,
2013-01-22 19:43:00,5.8,-3.4,30.31,WNW,288,6.0,9.0,65,0.00,,SKC,0.00,0.00,VWS V14.01,2013-01-23 01:43:00,
2013-01-22 19:48:00,5.7,-3.5,30.32,WNW,290,6.0,10.0,65,0.00,,SKC,0.00,0.00,VWS V14.01,2013-01-23 01:48:00,
2013-01-22 19:53:00,5.8,-3.4,30.31,WNW,289,10.0,10.0,65,0.00,,SKC,0.00,0.00,VWS V14.01,2013-01-23 01:53:00,
2013-01-22 19:58:00,5.8,-3.1,30.31,West,277,8.0,10.0,66,0.00,,SKC,0.00,0.00,VWS V14.01,2013-01-23 01:58:00,
2013-01-22 20:03:00,5.8,-3.1,30.32,WNW,302,6.0,9.0,66,0.00,,SKC,0.00,0.00,VWS V14.01,2013-01-23 02:03:00,
2013-01-22 20:08:00,5.8,-3.1,30.32,WNW,303,7.0,10.0,66,0.00,,SKC,0.00,0.00,VWS V14.01,2013-01-23 02:08:00,
2013-01-22 20:13:00,5.8,-3.1,30.32,NW,304,7.0,12.0,66,0.00,,SKC,0.00,0.00,VWS V14.01,2013-01-23 02:13:00,
2013-01-22 20:18:00,5.8,-3.4,30.32,NW,306,9.0,13.0,65,0.00,,SKC,0.00,0.00,VWS V14.01,2013-01-23 02:18:00,
2013-01-22 20:23:00,5.9,-3.3,30.31,NW,316,8.0,11.0,65,0.00,,SKC,0.00,0.00,VWS V14.01,2013-01-23 02:23:00,
2013-01-22 20:28:00,5.9,-3.3,30.31,WNW,302,10.0,15.0,65,0.00,,SKC,0.00,0.00,VWS V14.01,2013-01-23 02:28:00,
2013-01-22 20:33:00,6.0,-3.2,30.31,WNW,289,7.0,13.0,65,0.00,,SKC,0.00,0.00,VWS V14.01,2013-01-23 02:33:00,
2013-01-22 20:38:00,6.0,-3.5,30.31,WNW,298,8.0,13.0,64,0.00,,SKC,0.00,0.00,VWS V14.01,2013-01-23 02:38:00,
2013-01-22 20:43:00,6.0,-3.5,30.31,West,281,9.0,11.0,64,0.00,,SKC,0.00,0.00,VWS V14.01,2013-01-23 02:43:00,
2013-01-22 20:48:00,6.0,-3.5,30.31,West,274,9.0,11.0,64,0.00,,SKC,0.00,0.00,VWS V14.01,2013-01-23 02:48:00,
2013-01-22 20:53:00,6.0,-3.5,30.31,NW,312,7.0,11.0,64,0.00,,SKC,0.00,0.00,VWS V14.01,2013-01-23 02:53:00,
2013-01-22 20:58:00,6.0,-3.2,30.31,WNW,288,8.0,11.0,65,0.00,,SKC,0.00,0.00,VWS V14.01,2013-01-23 02:58:00,
2013-01-22 21:04:00,6.0,-3.5,30.31,WNW,296,5.0,12.0,64,0.00,,SKC,0.00,0.00,VWS V14.01,2013-01-23 03:04:00,
2013-01-22 21:08:00,6.0,-3.5,30.31,WNW,292,8.0,12.0,64,0.00,,SKC,0.00,0.00,VWS V14.01,2013-01-23 03:08:00,
2013-01-22 21:14:00,6.0,-3.5,30.31,WNW,294,6.0,11.0,64,0.00,,SKC,0.00,0.00,VWS V14.01,2013-01-23 03:14:00,
2013-01-22 21:19:00,6.0,-3.5,30.32,NW,324,3.0,11.0,64,0.00,,SKC,0.00,0.00,VWS V14.01,2013-01-23 03:19:00,
2013-01-22 21:24:00,5.9,-3.6,30.32,NW,313,6.0,8.0,64,0.00,,SKC,0.00,0.00,VWS V14.01,2013-01-23 03:24:00,
2013-01-22 21:29:00,5.9,-3.6,30.32,NW,313,5.0,8.0,64,0.00,,SKC,0.00,0.00,VWS V14.01,2013-01-23 03:29:00,
2013-01-22 21:34:00,5.9,-3.6,30.32,WNW,302,6.0,7.0,64,0.00,,SKC,0.00,0.00,VWS V14.01,2013-01-23 03:34:00,
2013-01-22 21:39:00,5.9,-3.3,30.32,WNW,300,2.0,7.0,65,0.00,,SKC,0.00,0.00,VWS V14.01,2013-01-23 03:39:00,
2013-01-22 21:44:00,5.7,-3.5,30.32,WNW,300,4.0,5.0,65,0.00,,SKC,0.00,0.00,VWS V14.01,2013-01-23 03:44:00,
2013-01-22 21:49:00,5.6,-3.6,30.33,WNW,300,2.0,5.0,65,0.00,,SKC,0.00,0.00,VWS V14.01,2013-01-23 03:49:00,
2013-01-22 21:54:00,5.5,-3.7,30.32,WNW,300,3.0,5.0,65,0.00,,SKC,0.00,0.00,VWS V14.01,2013-01-23 03:54:00,
2013-01-22 21:59:00,5.4,-3.5,30.32,WNW,300,0.0,5.0,66,0.00,,SKC,0.00,0.00,VWS V14.01,2013-01-23 03:59:00,
2013-01-22 22:04:00,5.2,-3.7,30.33,WNW,300,2.0,3.0,66,0.00,,SKC,0.00,0.00,VWS V14.01,2013-01-23 04:04:00,
2013-01-22 22:09:00,5.1,-3.8,30.33,WNW,300,0.0,3.0,66,0.00,,SKC,0.00,0.00,VWS V14.01,2013-01-23 04:09:00,
2013-01-22 22:14:00,4.9,-4.0,30.33,WNW,300,0.0,3.0,66,0.00,,SKC,0.00,0.00,VWS V14.01,2013-01-23 04:14:00,
2013-01-22 22:19:00,4.8,-3.7,30.33,WNW,300,0.0,3.0,67,0.00,,SKC,0.00,0.00,VWS V14.01,2013-01-23 04:19:00,
2013-01-22 22:24:00,4.7,-3.8,30.33,WNW,300,0.0,0.0,67,0.00,,SKC,0.00,0.00,VWS V14.01,2013-01-23 04:24:00,
2013-01-22 22:29:00,4.6,-3.9,30.33,WNW,300,0.0,0.0,67,0.00,,SKC,0.00,0.00,VWS V14.01,2013-01-23 04:29:00,
2013-01-22 22:34:00,4.6,-3.9,30.33,WNW,300,0.0,2.0,67,0.00,,SKC,0.00,0.00,VWS V14.01,2013-01-23 04:34:00,
2013-01-22 22:39:00,4.6,-3.6,30.33,WNW,300,0.0,2.0,68,0.00,,SKC,0.00,0.00,VWS V14.01,2013-01-23 04:39:00,
2013-01-22 22:44:00,4.6,-3.6,30.33,WNW,300,1.0,2.0,68,0.00,,SKC,0.00,0.00,VWS V14.01,2013-01-23 04:44:00,
2013-01-22 22:49:00,4.4,-3.8,30.33,WNW,300,0.0,2.0,68,0.00,,SKC,0.00,0.00,VWS V14.01,2013-01-23 04:49:00,
2013-01-22 22:54:00,4.2,-3.7,30.33,WNW,300,0.0,0.0,69,0.00,,SKC,0.00,0.00,VWS V14.01,2013-01-23 04:54:00,
2013-01-22 22:59:00,4.0,-3.9,30.33,WNW,300,0.0,0.0,69,0.00,,SKC,0.00,0.00,VWS V14.01,2013-01-23 04:59:00,
2013-01-22 23:00:00,4.0,-3.9,30.33,WNW,300,0.0,0.0,69,0.00,,SKC,0.00,0.00,VWS V14.01,2013-01-23 05:00:00,
2013-01-22 23:03:00,3.8,-4.1,30.33,WNW,300,0.0,0.0,69,0.00,,SKC,0.00,0.00,VWS V14.01,2013-01-23 05:03:00,
2013-01-22 23:08:00,3.6,-4.0,30.33,WNW,300,0.0,0.0,70,0.00,,SKC,0.00,0.00,VWS V14.01,2013-01-23 05:08:00,
2013-01-22 23:13:00,3.5,-4.1,30.33,WNW,300,0.0,0.0,70,0.00,,SKC,0.00,0.00,VWS V14.01,2013-01-23 05:13:00,
2013-01-22 23:18:00,3.3,-4.0,30.33,WNW,300,0.0,0.0,71,0.00,,SKC,0.00,0.00,VWS V14.01,2013-01-23 05:18:00,
2013-01-22 23:23:00,2.9,-4.4,30.33,WNW,300,0.0,0.0,71,0.00,,SKC,0.00,0.00,VWS V14.01,2013-01-23 05:23:00,
2013-01-22 23:28:00,2.8,-4.2,30.33,WNW,300,0.0,0.0,72,0.00,,SKC,0.00,0.00,VWS V14.01,2013-01-23 05:28:00,
2013-01-22 23:33:00,2.6,-4.3,30.32,WNW,300,0.0,0.0,72,0.00,,SKC,0.00,0.00,VWS V14.01,2013-01-23 05:33:00,
2013-01-22 23:38:00,2.4,-4.6,30.32,WNW,300,0.0,0.0,72,0.00,,SKC,0.00,0.00,VWS V14.01,2013-01-23 05:38:00,
2013-01-22 23:43:00,2.4,-4.3,30.32,WNW,300,0.0,0.0,73,0.00,,SKC,0.00,0.00,VWS V14.01,2013-01-23 05:43:00,
2013-01-22 23:48:00,2.3,-4.1,30.32,WNW,300,0.0,0.0,74,0.00,,SKC,0.00,0.00,VWS V14.01,2013-01-23 05:48:00,
2013-01-22 23:53:00,2.2,-4.2,30.32,WNW,300,1.0,2.0,74,0.00,,SKC,0.00,0.00,VWS V14.01,2013-01-23 05:53:00,
2013-01-22 23:58:00,2.2,-4.2,30.32,WNW,300,0.0,2.0,74,0.00,,SKC,0.00,0.00,VWS V14.01,2013-01-23 05:58:00,